Flag for United Kingdom Weather past 2 weeks in Glasgow, Scotland, United Kingdom

Now
43 °F

Passing clouds.


Feels Like: 38 °F
Forecast: 45 / 53 °F
Wind: 8 mph from West

Location: Glasgow Airport

Current Time: Oct 21, 2014 at 8:14:47 PM

Latest Report: Oct 21, 2014 at 7:20 PM


Visibility: N/A

Pressure: 29.89 "Hg

Humidity: 81%

Dew point: 37 °F

Location of GlasgowLocation

Historic Weather in Glasgow — Graph

°F

Glasgow temperature yesterday

Maximum temperature yesterday: 55 °F (at 1:20 PM)
Minimum temperature yesterday: 50 °F (at 7:50 AM)
Average temperature yesterday: 53 °F

Past Weeks' High & Low Weather Summary

 TemperatureHumidityPressure
High64 °F (Oct 18, 12:20 PM)100% (Oct 7, 12:20 AM)29.95 "Hg (Oct 7, 12:20 AM)
Low32 °F (Oct 7, 3:20 AM)51% (Oct 15, 2:50 PM)29.03 "Hg (Oct 21, 4:20 AM)
Average50 °F87%29.58 "Hg
* Reported Oct 6 6:20 PM — Oct 21 6:50 PM, Glasgow, Weather by CustomWeather, © 2014

Note: Actual official high and low records may vary slightly from our data, if they occured in-between our weather recording intervals... More about our weather records

Advertising

Glasgow weather history for previous 24 hours

 ConditionsComfort  
Time TempWeatherWind HumidityBarometerVisibility
6:50 PM
Oct 21
45 °FLight rain. Partly sunny.16 mph76%29.86 "Hg3 mi
6:20 PM46 °FPartly sunny.12 mph66%29.83 "HgN/A
5:50 PM46 °FPartly sunny.20 mph66%29.83 "HgN/A
5:20 PM46 °FPartly sunny.16 mph66%29.80 "HgN/A
4:50 PM45 °FScattered clouds.15 mph76%29.77 "HgN/A
4:20 PM46 °FLight rain. Partly sunny.21 mph71%29.74 "Hg6 mi
3:50 PM48 °FScattered clouds.24 mph54%29.68 "HgN/A
3:20 PM50 °FPartly sunny.21 mph58%29.65 "HgN/A
2:50 PM48 °FPartly sunny.24 mph62%29.62 "HgN/A
2:20 PM48 °FPartly sunny.28 mph58%29.62 "HgN/A
1:50 PM50 °FLight rain. Partly sunny.26 mph62%29.59 "Hg3 mi
1:20 PM50 °FPartly sunny.24 mph62%29.56 "HgN/A
12:50 PM48 °FMostly cloudy.25 mph66%29.53 "HgN/A
12:20 PM46 °FLight rain. Partly sunny.26 mph76%29.50 "Hg4 mi
11:50 AM46 °FBroken clouds.26 mph76%29.47 "HgN/A
11:20 AM48 °FLight rain. Partly sunny.23 mph71%29.45 "HgN/A
10:50 AM48 °FBroken clouds.18 mph76%29.42 "HgN/A
10:20 AM48 °FPartly sunny.20 mph71%29.39 "HgN/A
9:50 AM48 °FPartly sunny.21 mph71%29.36 "HgN/A
9:20 AM48 °FPartly sunny.20 mph71%29.33 "HgN/A
8:50 AM46 °FPassing clouds.16 mph76%29.30 "HgN/A
8:20 AM46 °FLight rain. Passing clouds.17 mph82%29.30 "HgN/A
7:50 AM46 °FPassing clouds.14 mph82%29.27 "HgN/A
7:20 AM46 °FPassing clouds.14 mph82%29.24 "HgN/A
6:50 AM46 °FRain. Passing clouds.15 mph82%29.21 "HgN/A
6:20 AM46 °FLight rain. Passing clouds.18 mph82%29.18 "HgN/A
5:50 AM48 °FLight rain. Passing clouds.21 mph82%29.15 "HgN/A
5:20 AM50 °FLight rain. Passing clouds.28 mph88%29.09 "HgN/A
4:50 AM54 °FPassing clouds.25 mph94%29.03 "Hg5 mi
4:20 AM55 °FPassing clouds.25 mph88%29.03 "HgN/A
3:50 AM55 °FMostly cloudy.24 mph88%29.06 "HgN/A
3:20 AM55 °FLight rain. Partly cloudy.26 mph94%29.09 "HgN/A
2:50 AM55 °FPassing clouds.24 mph94%29.12 "HgN/A
2:20 AM55 °FHeavy rain. Mostly cloudy.20 mph94%29.15 "Hg2 mi
1:50 AM55 °FHeavy rain. Mostly cloudy.18 mph88%29.21 "Hg2 mi
1:20 AM54 °FHeavy rain. Passing clouds.17 mph94%29.24 "Hg2 mi
12:50 AM54 °FRain. Partly cloudy.17 mph94%29.30 "Hg4 mi
12:20 AM55 °FLight rain. Passing clouds.16 mph88%29.33 "Hg4 mi
11:50 PM
Oct 20
55 °FLight rain. Passing clouds.20 mph88%29.36 "HgN/A
11:20 PM55 °FLight rain. Overcast.18 mph88%29.39 "Hg4 mi
10:50 PM55 °FOvercast.18 mph88%29.42 "HgN/A
10:20 PM55 °FPassing clouds.20 mph88%29.45 "HgN/A
9:50 PM55 °FMostly cloudy.18 mph88%29.47 "HgN/A
9:20 PM55 °FOvercast.16 mph88%29.50 "HgN/A
8:50 PM54 °FPassing clouds.14 mph94%29.53 "HgN/A
8:20 PM54 °FMostly cloudy.14 mph94%29.56 "HgN/A
Weather by CustomWeather, © 2014

See weather overviewHow to use our weather pages